Regional Weather Roundup
Issued by NWS

Home | Current Version | Previous Version | Text Only | Print | Product List | Glossary On
Versions: 1 2 3 4 5 6 7 8 9 10 11 12 13 14 15 16 17 18 19 20 21 22 23 24 25 26 27 28 29 30 31 32 33 34 35 36 37 38 39 40 41 42 43 44 45 46 47 48 49 50
000
ASUS43 KLMK 251110
RWRKY
KENTUCKY REGIONAL WEATHER ROUNDUP
NATIONAL WEATHER SERVICE LOUISVILLE KY
700 AM EDT TUE JUL 25 2017

NOTE "FAIR" INDICATES FEW OR NO CLOUDS BELOW 12,000 FEET
WITH NO SIGNIFICANT WEATHER AND/OR OBSTRUCTIONS TO VISIBILITY.

KYZ001>023-026-027-061>063-070>075-251200-
WESTERN AND SOUTH CENTRAL KENTUCKY

CITY           SKY/WX    TMP DP  RH WIND       PRES   REMARKS
PADUCAH        MOCLDY    75  71  87 CALM      30.05S
HENDERSON      PTCLDY    72  68  87 E10       30.09R
OWENSBORO      PTCLDY    73  67  81 E8        30.10R
HOPKINSVILLE   PTCLDY    72  72 100 CALM      30.08R
BOWLING GREEN  MOCLDY    75  72  90 NE3       30.09R
GLASGOW        CLEAR     71  71 100 NE5       30.10R
$$

KYZ024-025-028>034-038-045-046-053-251200-
NORTH CENTRAL KENTUCKY

CITY           SKY/WX    TMP DP  RH WIND       PRES   REMARKS
LOUISVILLE/SDF PTCLDY    70  61  73 E7        30.13R
LOUISVILLE/LOU MOCLDY    69  63  81 NE7       30.14R
FORT KNOX      CLEAR     68  62  82 NE8       30.11R
$$

KYZ035>037-039>044-047>052-055>060-089>105-251200-
NORTHEAST KENTUCKY

CITY           SKY/WX    TMP DP  RH WIND       PRES   REMARKS
LEXINGTON      CLEAR     66  60  81 NE7       30.15R
COVINGTON      PTCLDY    64  60  87 E7        30.16R
FRANKFORT      CLEAR     67  59  75 NE5       30.14R
$$

KYZ054-064>069-076>088-106>120-251200-
SOUTHEAST KENTUCKY

CITY           SKY/WX    TMP DP  RH WIND       PRES   REMARKS
JACKSON        CLEAR     64  62  93 CALM      30.15R
LONDON         CLOUDY    70  67  90 E5        30.13R
SOMERSET       MOCLDY    68  68 100 E3        30.13R
MIDDLESBORO    CLOUDY    68  68 100 CALM      30.14R FOG
MONTICELLO     MOSUNNY   70  70 100 NW8       30.12R
$$





USA.gov is the U.S. government's official web portal to all federal, state and local government web resources and services.